Total_Precipitation_Accumulation
0.50 0.61 0.72 0.88 0.99 1.09 1.23 1.43 1.65 1.75 1.78 1.80 1.76 1.69 1.84 1.95 1.86 1.76 1.91 2.12 2.29 2.46 2.49 2.33 2.21 2.13 1.99 1.73 1.59 1.55 1.45 1.28 1.12 1.10 1.13 1.03 0.90 0.87 0.75 0.64 0.59 0.56 0.52
0.52 0.59 0.68 0.83 0.94 1.07 1.15 1.34 1.58 1.72 1.70 1.65 1.68 1.66 1.69 1.78 1.86 1.82 1.82 1.94 2.16 2.38 2.62 2.55 2.39 2.27 2.18 2.05 1.82 1.67 1.64 1.56 1.34 1.21 1.26 1.30 1.24 1.04 0.85 0.72 0.61 0.58 0.57
0.53 0.57 0.65 0.76 0.89 1.05 1.12 1.17 1.41 1.69 1.75 1.75 1.84 1.85 1.92 1.95 1.93 1.83 1.79 1.87 1.98 2.12 2.24 2.34 2.25 2.27 2.23 2.16 2.03 1.84 1.73 1.75 1.60 1.34 1.40 1.49 1.34 1.06 0.91 0.81 0.71 0.63 0.61
0.53 0.60 0.65 0.77 0.86 1.01 1.21 1.25 1.32 1.56 1.78 1.81 1.83 1.79 1.81 1.80 1.80 1.72 1.65 1.76 1.96 2.05 2.09 2.16 2.19 2.06 2.00 1.96 1.96 1.93 1.80 1.82 1.82 1.60 1.35 1.24 1.19 1.24 1.12 0.90 0.82 0.80 0.73
0.56 0.63 0.68 0.80 0.94 1.07 1.26 1.37 1.41 1.46 1.65 1.73 1.70 1.71 1.69 1.70 1.78 1.78 1.71 1.66 1.81 2.01 2.11 2.10 2.13 2.14 2.01 1.85 1.80 1.85 1.87 1.82 1.77 1.67 1.49 1.29 1.09 1.05 1.20 1.06 0.91 0.93 0.91
0.60 0.65 0.73 0.86 1.02 1.16 1.33 1.43 1.50 1.43 1.50 1.72 1.71 1.60 1.57 1.58 1.66 1.75 1.82 1.79 1.74 1.82 1.96 2.07 2.04 2.04 2.07 2.01 1.83 1.77 1.83 1.80 1.74 1.67 1.57 1.47 1.36 1.16 1.14 1.10 0.90 0.87 0.87
0.59 0.65 0.74 0.89 0.98 1.10 1.25 1.39 1.43 1.43 1.45 1.60 1.69 1.60 1.50 1.49 1.48 1.55 1.66 1.74 1.74 1.70 1.75 1.87 1.93 1.90 1.91 1.96 1.95 1.85 1.81 1.79 1.79 1.72 1.59 1.46 1.36 1.26 1.29 1.33 1.14 0.94 0.82
0.50 0.59 0.69 0.82 0.92 0.96 1.08 1.25 1.34 1.35 1.38 1.53 1.70 1.71 1.57 1.55 1.44 1.44 1.52 1.60 1.62 1.58 1.55 1.62 1.71 1.71 1.66 1.72 1.84 1.84 1.76 1.75 1.77 1.74 1.69 1.61 1.42 1.34 1.41 1.50 1.59 1.42 1.03
0.48 0.54 0.64 0.69 0.75 0.86 0.95 1.07 1.26 1.36 1.37 1.41 1.61 1.81 1.79 1.65 1.53 1.41 1.45 1.52 1.54 1.55 1.57 1.56 1.57 1.54 1.53 1.53 1.56 1.62 1.59 1.63 1.67 1.69 1.71 1.73 1.58 1.47 1.41 1.45 1.66 1.98 1.74
0.51 0.55 0.59 0.61 0.67 0.77 0.86 0.95 1.14 1.29 1.35 1.36 1.44 1.64 1.87 1.80 1.70 1.66 1.49 1.47 1.48 1.50 1.54 1.56 1.55 1.51 1.44 1.48 1.50 1.45 1.38 1.45 1.50 1.55 1.63 1.68 1.61 1.52 1.45 1.49 1.51 1.64 1.85
0.47 0.52 0.54 0.61 0.66 0.72 0.83 0.93 1.05 1.17 1.24 1.26 1.31 1.42 1.64 1.82 1.83 1.77 1.63 1.46 1.44 1.41 1.39 1.42 1.47 1.48 1.42 1.43 1.52 1.49 1.39 1.39 1.40 1.42 1.45 1.48 1.50 1.53 1.46 1.46 1.47 1.44 1.53
0.42 0.48 0.51 0.59 0.63 0.70 0.80 0.88 0.96 1.10 1.19 1.22 1.27 1.34 1.42 1.58 1.79 1.72 1.59 1.43 1.38 1.39 1.39 1.36 1.38 1.41 1.43 1.44 1.48 1.48 1.40 1.37 1.36 1.36 1.34 1.34 1.37 1.45 1.40 1.37 1.34 1.29 1.25
0.42 0.47 0.53 0.54 0.60 0.69 0.75 0.80 0.87 1.01 1.12 1.21 1.25 1.25 1.31 1.38 1.49 1.61 1.54 1.43 1.35 1.34 1.36 1.37 1.36 1.40 1.45 1.47 1.41 1.43 1.40 1.34 1.33 1.33 1.32 1.27 1.33 1.40 1.36 1.35 1.29 1.20 1.13
0.41 0.44 0.50 0.53 0.56 0.64 0.74 0.76 0.86 0.97 1.02 1.12 1.16 1.17 1.16 1.21 1.26 1.36 1.52 1.50 1.41 1.32 1.28 1.28 1.32 1.42 1.59 1.65 1.62 1.64 1.51 1.40 1.34 1.28 1.23 1.25 1.36 1.39 1.41 1.46 1.36 1.29 1.30
0.39 0.43 0.49 0.54 0.59 0.66 0.74 0.80 0.84 0.86 0.89 1.00 1.06 1.11 1.15 1.22 1.26 1.22 1.33 1.49 1.44 1.29 1.21 1.20 1.27 1.37 1.75 2.15 2.17 2.08 1.79 1.48 1.32 1.23 1.20 1.25 1.40 1.46 1.63 1.77 1.64 1.61 1.72
0.41 0.43 0.49 0.54 0.61 0.68 0.78 0.90 0.91 0.89 0.83 0.90 0.99 1.06 1.16 1.30 1.31 1.25 1.29 1.40 1.47 1.38 1.27 1.21 1.22 1.28 1.59 2.31 2.49 2.14 1.68 1.46 1.32 1.25 1.19 1.19 1.33 1.36 1.49 1.69 1.78 1.84 1.97
0.46 0.46 0.50 0.57 0.65 0.71 0.81 0.92 0.95 0.93 0.89 0.89 0.95 1.01 1.07 1.24 1.31 1.28 1.34 1.39 1.46 1.51 1.48 1.32 1.21 1.19 1.40 2.10 2.28 2.01 1.58 1.40 1.31 1.23 1.22 1.21 1.26 1.33 1.30 1.43 1.50 1.54 1.71
0.48 0.48 0.53 0.59 0.63 0.70 0.76 0.84 0.89 0.90 0.94 0.96 0.98 1.03 1.03 1.08 1.23 1.33 1.35 1.38 1.41 1.44 1.50 1.44 1.33 1.22 1.30 1.88 2.08 1.89 1.55 1.41 1.31 1.22 1.19 1.19 1.22 1.32 1.52 1.48 1.44 1.35 1.36
0.51 0.53 0.56 0.61 0.62 0.65 0.71 0.81 0.86 0.87 0.98 1.04 1.04 1.02 0.97 1.00 1.12 1.22 1.33 1.37 1.39 1.36 1.37 1.36 1.36 1.30 1.28 1.66 1.96 1.79 1.47 1.43 1.33 1.20 1.17 1.19 1.19 1.46 1.74 1.64 1.49 1.31 1.23
0.49 0.53 0.56 0.54 0.59 0.63 0.67 0.78 0.85 0.84 0.94 1.03 1.07 0.97 0.88 0.86 0.90 1.01 1.21 1.32 1.34 1.29 1.29 1.30 1.31 1.25 1.19 1.47 1.78 1.78 1.46 1.38 1.32 1.24 1.20 1.34 1.43 1.62 1.76 1.61 1.55 1.64 1.41
0.45 0.48 0.49 0.50 0.60 0.65 0.65 0.73 0.82 0.88 0.93 0.99 1.06 0.97 0.87 0.85 0.86 0.94 1.12 1.26 1.33 1.33 1.27 1.22 1.23 1.19 1.18 1.31 1.53 1.77 1.56 1.40 1.34 1.30 1.25 1.23 1.50 1.59 1.66 1.69 1.64 1.88 1.75
0.37 0.39 0.44 0.48 0.56 0.62 0.67 0.73 0.81 0.88 0.96 1.01 1.00 0.99 0.96 0.91 0.92 0.96 1.10 1.24 1.32 1.39 1.34 1.23 1.20 1.18 1.18 1.28 1.44 1.64 1.69 1.56 1.34 1.24 1.12 1.18 1.44 1.52 1.62 1.62 1.71 1.85 1.77
0.37 0.37 0.41 0.45 0.52 0.59 0.66 0.77 0.84 0.84 0.92 0.97 1.00 1.00 1.01 0.99 0.99 1.02 1.11 1.23 1.31 1.36 1.34 1.25 1.18 1.16 1.12 1.27 1.54 1.49 1.55 1.60 1.38 1.24 1.34 1.42 1.53 1.52 1.43 1.50 1.60 1.59 1.52
0.36 0.37 0.40 0.43 0.52 0.58 0.62 0.73 0.81 0.80 0.81 0.87 0.97 0.97 1.00 1.05 1.08 1.11 1.13 1.20 1.30 1.37 1.28 1.21 1.12 1.07 1.10 1.31 1.49 1.44 1.42 1.52 1.49 1.43 1.49 1.57 1.55 1.44 1.34 1.36 1.36 1.31 1.41
0.41 0.41 0.44 0.46 0.53 0.60 0.67 0.74 0.76 0.75 0.76 0.80 0.92 1.01 1.04 1.10 1.14 1.15 1.19 1.25 1.24 1.39 1.36 1.22 1.14 1.16 1.28 1.48 1.62 1.58 1.50 1.51 1.52 1.60 1.66 1.59 1.51 1.47 1.36 1.24 1.16 1.20 1.37
0.45 0.45 0.46 0.50 0.55 0.62 0.73 0.77 0.73 0.72 0.76 0.81 0.87 0.98 1.07 1.09 1.08 1.07 1.13 1.29 1.31 1.34 1.30 1.24 1.20 1.14 1.32 1.50 1.57 1.65 1.68 1.70 1.77 1.80 1.71 1.49 1.33 1.30 1.25 1.23 1.20 1.14 1.17